Time,TemperatureF,DewpointF,PressureIn,WindDirection,WindDirectionDegrees,WindSpeedMPH,WindSpeedGustMPH,Humidity,HourlyPrecipIn,Conditions,Clouds,dailyrainin,SoftwareType,DateUTC
2013-01-26 00:00:00,14.0,10.0,-100.00,NW,306,1.0,3.0,92,-99.99,,,-99.99,,2013-01-26 05:00:00,
2013-01-26 00:23:00,14.0,10.0,-100.00,NW,306,1.0,3.0,92,-99.99,,,-99.99,,2013-01-26 05:23:00,
2013-01-26 00:33:00,14.0,10.0,-100.00,NW,306,1.0,3.0,92,-99.99,,,-99.99,,2013-01-26 05:33:00,
2013-01-26 00:42:00,14.0,10.0,-100.00,NW,306,1.0,3.0,92,-99.99,,,-99.99,,2013-01-26 05:42:00,
2013-01-26 00:53:00,14.0,10.0,-100.00,NW,306,1.0,3.0,92,-99.99,,,-99.99,,2013-01-26 05:53:00,
2013-01-26 01:00:00,13.0,9.0,-100.00,WNW,288,1.0,4.0,92,-99.99,,,-99.99,,2013-01-26 06:00:00,
2013-01-26 01:21:00,13.0,9.0,-100.00,WNW,288,1.0,4.0,92,-99.99,,,-99.99,,2013-01-26 06:21:00,
2013-01-26 01:32:00,13.0,9.0,-100.00,WNW,288,1.0,4.0,92,-99.99,,,-99.99,,2013-01-26 06:32:00,
2013-01-26 01:42:00,13.0,9.0,-100.00,WNW,288,1.0,4.0,92,-99.99,,,-99.99,,2013-01-26 06:42:00,
2013-01-26 01:52:00,13.0,9.0,-100.00,WNW,288,1.0,4.0,92,-99.99,,,-99.99,,2013-01-26 06:52:00,
2013-01-26 02:00:00,13.0,9.0,-100.00,WNW,293,3.0,5.0,91,-99.99,,,-99.99,,2013-01-26 07:00:00,
2013-01-26 02:22:00,13.0,9.0,-100.00,WNW,293,3.0,5.0,91,-99.99,,,-99.99,,2013-01-26 07:22:00,
2013-01-26 02:33:00,13.0,9.0,-100.00,WNW,293,3.0,5.0,91,-99.99,,,-99.99,,2013-01-26 07:33:00,
2013-01-26 02:42:00,13.0,9.0,-100.00,WNW,293,3.0,5.0,91,-99.99,,,-99.99,,2013-01-26 07:42:00,
2013-01-26 02:52:00,13.0,9.0,-100.00,WNW,293,3.0,5.0,91,-99.99,,,-99.99,,2013-01-26 07:52:00,
2013-01-26 03:00:00,13.0,8.0,-100.00,West,270,2.0,5.0,91,-99.99,,,-99.99,,2013-01-26 08:00:00,
2013-01-26 03:22:00,13.0,8.0,-100.00,West,270,2.0,5.0,91,-99.99,,,-99.99,,2013-01-26 08:22:00,
2013-01-26 03:32:00,13.0,8.0,-100.00,West,270,2.0,5.0,91,-99.99,,,-99.99,,2013-01-26 08:32:00,
2013-01-26 03:42:00,13.0,8.0,-100.00,West,270,2.0,5.0,91,-99.99,,,-99.99,,2013-01-26 08:42:00,
2013-01-26 03:54:00,13.0,8.0,-100.00,West,270,2.0,5.0,91,-99.99,,,-99.99,,2013-01-26 08:54:00,
2013-01-26 04:00:00,14.0,9.0,-100.00,NW,310,4.0,7.0,89,-99.99,,,-99.99,,2013-01-26 09:00:00,
2013-01-26 04:32:00,14.0,9.0,-100.00,NW,310,4.0,7.0,89,-99.99,,,-99.99,,2013-01-26 09:32:00,
2013-01-26 04:42:00,14.0,9.0,-100.00,NW,310,4.0,7.0,89,-99.99,,,-99.99,,2013-01-26 09:42:00,
2013-01-26 04:52:00,14.0,9.0,-100.00,NW,310,4.0,7.0,89,-99.99,,,-99.99,,2013-01-26 09:52:00,
2013-01-26 05:00:00,13.0,8.0,-100.00,NW,306,4.0,7.0,85,-99.99,,,-99.99,,2013-01-26 10:00:00,
2013-01-26 05:21:00,13.0,8.0,-100.00,NW,306,4.0,7.0,85,-99.99,,,-99.99,,2013-01-26 10:21:00,
2013-01-26 05:32:00,13.0,8.0,-100.00,NW,306,4.0,7.0,85,-99.99,,,-99.99,,2013-01-26 10:32:00,
2013-01-26 05:42:00,13.0,8.0,-100.00,NW,306,4.0,7.0,85,-99.99,,,-99.99,,2013-01-26 10:42:00,
2013-01-26 05:52:00,13.0,8.0,-100.00,NW,306,4.0,7.0,85,-99.99,,,-99.99,,2013-01-26 10:52:00,
2013-01-26 06:00:00,12.0,7.0,-100.00,WNW,293,3.0,8.0,85,-99.99,,,-99.99,,2013-01-26 11:00:00,
2013-01-26 06:22:00,12.0,7.0,-100.00,WNW,293,3.0,8.0,85,-99.99,,,-99.99,,2013-01-26 11:22:00,
2013-01-26 06:32:00,12.0,7.0,-100.00,WNW,293,3.0,8.0,85,-99.99,,,-99.99,,2013-01-26 11:32:00,
2013-01-26 06:42:00,12.0,7.0,-100.00,WNW,293,3.0,8.0,85,-99.99,,,-99.99,,2013-01-26 11:42:00,
2013-01-26 06:52:00,12.0,7.0,-100.00,WNW,293,3.0,8.0,85,-99.99,,,-99.99,,2013-01-26 11:52:00,
2013-01-26 07:00:00,13.0,7.0,-100.00,NNW,335,4.0,5.0,86,-99.99,,,-99.99,,2013-01-26 12:00:00,
2013-01-26 07:23:00,13.0,7.0,-100.00,NNW,335,4.0,5.0,86,-99.99,,,-99.99,,2013-01-26 12:23:00,
2013-01-26 07:33:00,13.0,7.0,-100.00,NNW,335,4.0,5.0,86,-99.99,,,-99.99,,2013-01-26 12:33:00,
2013-01-26 07:42:00,13.0,7.0,-100.00,NNW,335,4.0,5.0,86,-99.99,,,-99.99,,2013-01-26 12:42:00,
2013-01-26 07:53:00,13.0,7.0,-100.00,NNW,335,4.0,5.0,86,-99.99,,,-99.99,,2013-01-26 12:53:00,
2013-01-26 08:00:00,16.0,9.0,-100.00,NW,322,5.0,8.0,80,-99.99,,,-99.99,,2013-01-26 13:00:00,
2013-01-26 08:22:00,16.0,9.0,-100.00,NW,322,5.0,8.0,80,-99.99,,,-99.99,,2013-01-26 13:22:00,
2013-01-26 08:33:00,16.0,9.0,-100.00,NW,322,5.0,8.0,80,-99.99,,,-99.99,,2013-01-26 13:33:00,
2013-01-26 08:42:00,16.0,9.0,-100.00,NW,322,5.0,8.0,80,-99.99,,,-99.99,,2013-01-26 13:42:00,
2013-01-26 08:53:00,16.0,9.0,-100.00,NW,322,5.0,8.0,80,-99.99,,,-99.99,,2013-01-26 13:53:00,
2013-01-26 09:00:00,18.0,9.0,-100.00,NNW,330,6.0,13.0,71,-99.99,,,-99.99,,2013-01-26 14:00:00,
2013-01-26 09:22:00,18.0,9.0,-100.00,NNW,330,6.0,13.0,71,-99.99,,,-99.99,,2013-01-26 14:22:00,
2013-01-26 09:32:00,18.0,9.0,-100.00,NNW,330,6.0,13.0,71,-99.99,,,-99.99,,2013-01-26 14:32:00,
2013-01-26 09:43:00,18.0,9.0,-100.00,NNW,330,6.0,13.0,71,-99.99,,,-99.99,,2013-01-26 14:43:00,
2013-01-26 09:53:00,18.0,9.0,-100.00,NNW,330,6.0,13.0,71,-99.99,,,-99.99,,2013-01-26 14:53:00,
2013-01-26 10:00:00,20.0,9.0,-100.00,NW,322,10.0,16.0,65,-99.99,,,-99.99,,2013-01-26 15:00:00,
2013-01-26 10:33:00,20.0,9.0,-100.00,NW,322,10.0,16.0,65,-99.99,,,-99.99,,2013-01-26 15:33:00,
2013-01-26 10:43:00,20.0,9.0,-100.00,NW,322,10.0,16.0,65,-99.99,,,-99.99,,2013-01-26 15:43:00,
2013-01-26 10:53:00,20.0,9.0,-100.00,NW,322,10.0,16.0,65,-99.99,,,-99.99,,2013-01-26 15:53:00,
2013-01-26 12:00:00,22.0,9.0,-100.00,NW,319,5.0,16.0,59,-99.99,,,-99.99,,2013-01-26 17:00:00,
2013-01-26 12:23:00,22.0,9.0,-100.00,NW,319,5.0,16.0,59,-99.99,,,-99.99,,2013-01-26 17:23:00,
2013-01-26 12:33:00,22.0,9.0,-100.00,NW,319,5.0,16.0,59,-99.99,,,-99.99,,2013-01-26 17:33:00,
2013-01-26 12:42:00,22.0,9.0,-100.00,NW,319,5.0,16.0,59,-99.99,,,-99.99,,2013-01-26 17:42:00,
2013-01-26 12:53:00,22.0,9.0,-100.00,NW,319,5.0,16.0,59,-99.99,,,-99.99,,2013-01-26 17:53:00,
2013-01-26 13:00:00,25.0,9.0,-100.00,NNW,341,5.0,15.0,54,-99.99,,,-99.99,,2013-01-26 18:00:00,
2013-01-26 13:22:00,25.0,9.0,-100.00,NNW,341,5.0,15.0,54,-99.99,,,-99.99,,2013-01-26 18:22:00,
2013-01-26 13:33:00,25.0,9.0,-100.00,NNW,341,5.0,15.0,54,-99.99,,,-99.99,,2013-01-26 18:33:00,
2013-01-26 13:42:00,25.0,9.0,-100.00,NNW,341,5.0,15.0,54,-99.99,,,-99.99,,2013-01-26 18:42:00,
2013-01-26 13:53:00,25.0,9.0,-100.00,NNW,341,5.0,15.0,54,-99.99,,,-99.99,,2013-01-26 18:53:00,
2013-01-26 14:00:00,26.0,9.0,-100.00,NW,306,5.0,16.0,48,-99.99,,,-99.99,,2013-01-26 19:00:00,
2013-01-26 14:23:00,26.0,9.0,-100.00,NW,306,5.0,16.0,48,-99.99,,,-99.99,,2013-01-26 19:23:00,
2013-01-26 14:33:00,26.0,9.0,-100.00,NW,306,5.0,16.0,48,-99.99,,,-99.99,,2013-01-26 19:33:00,
2013-01-26 14:43:00,26.0,9.0,-100.00,NW,306,5.0,16.0,48,-99.99,,,-99.99,,2013-01-26 19:43:00,
2013-01-26 14:53:00,26.0,9.0,-100.00,NW,306,5.0,16.0,48,-99.99,,,-99.99,,2013-01-26 19:53:00,
2013-01-26 15:00:00,27.0,6.0,-100.00,WNW,303,13.0,21.0,42,-99.99,,,-99.99,,2013-01-26 20:00:00,
2013-01-26 15:22:00,27.0,6.0,-100.00,WNW,303,13.0,21.0,42,-99.99,,,-99.99,,2013-01-26 20:22:00,
2013-01-26 15:32:00,27.0,6.0,-100.00,WNW,303,13.0,21.0,42,-99.99,,,-99.99,,2013-01-26 20:32:00,
2013-01-26 15:42:00,27.0,6.0,-100.00,WNW,303,13.0,21.0,42,-99.99,,,-99.99,,2013-01-26 20:42:00,
2013-01-26 15:52:00,27.0,6.0,-100.00,WNW,303,13.0,21.0,42,-99.99,,,-99.99,,2013-01-26 20:52:00,
2013-01-26 16:00:00,27.0,5.0,-100.00,NW,308,14.0,21.0,38,-99.99,,,-99.99,,2013-01-26 21:00:00,
2013-01-26 16:23:00,27.0,5.0,-100.00,NW,308,14.0,21.0,38,-99.99,,,-99.99,,2013-01-26 21:23:00,
2013-01-26 16:32:00,27.0,5.0,-100.00,NW,308,14.0,21.0,38,-99.99,,,-99.99,,2013-01-26 21:32:00,
2013-01-26 16:43:00,27.0,5.0,-100.00,NW,308,14.0,21.0,38,-99.99,,,-99.99,,2013-01-26 21:43:00,
2013-01-26 16:52:00,27.0,5.0,-100.00,NW,308,14.0,21.0,38,-99.99,,,-99.99,,2013-01-26 21:52:00,
2013-01-26 17:00:00,26.0,5.0,-100.00,NW,310,7.0,20.0,42,-99.99,,,-99.99,,2013-01-26 22:00:00,
2013-01-26 17:22:00,26.0,5.0,-100.00,NW,310,7.0,20.0,42,-99.99,,,-99.99,,2013-01-26 22:22:00,
2013-01-26 17:32:00,26.0,5.0,-100.00,NW,310,7.0,20.0,42,-99.99,,,-99.99,,2013-01-26 22:32:00,
2013-01-26 17:42:00,26.0,5.0,-100.00,NW,310,7.0,20.0,42,-99.99,,,-99.99,,2013-01-26 22:42:00,
2013-01-26 17:52:00,26.0,5.0,-100.00,NW,310,7.0,20.0,42,-99.99,,,-99.99,,2013-01-26 22:52:00,
2013-01-26 18:00:00,26.0,5.0,-100.00,WNW,303,12.0,18.0,43,-99.99,,,-99.99,,2013-01-26 23:00:00,
2013-01-26 18:22:00,26.0,5.0,-100.00,WNW,303,12.0,18.0,43,-99.99,,,-99.99,,2013-01-26 23:22:00,
2013-01-26 18:33:00,26.0,5.0,-100.00,WNW,303,12.0,18.0,43,-99.99,,,-99.99,,2013-01-26 23:33:00,
2013-01-26 18:42:00,26.0,5.0,-100.00,WNW,303,12.0,18.0,43,-99.99,,,-99.99,,2013-01-26 23:42:00,
2013-01-26 18:52:00,26.0,5.0,-100.00,WNW,303,12.0,18.0,43,-99.99,,,-99.99,,2013-01-26 23:52:00,
2013-01-26 19:00:00,25.0,5.0,-100.00,NNW,333,11.0,20.0,43,-99.99,,,-99.99,,2013-01-27 00:00:00,
2013-01-26 19:22:00,25.0,5.0,-100.00,NNW,333,11.0,20.0,43,-99.99,,,-99.99,,2013-01-27 00:22:00,
2013-01-26 19:32:00,25.0,5.0,-100.00,NNW,333,11.0,20.0,43,-99.99,,,-99.99,,2013-01-27 00:32:00,
2013-01-26 19:42:00,25.0,5.0,-100.00,NNW,333,11.0,20.0,43,-99.99,,,-99.99,,2013-01-27 00:42:00,
2013-01-26 19:52:00,25.0,5.0,-100.00,NNW,333,11.0,20.0,43,-99.99,,,-99.99,,2013-01-27 00:52:00,
2013-01-26 20:00:00,24.0,4.0,-100.00,NNW,329,15.0,21.0,43,-99.99,,,-99.99,,2013-01-27 01:00:00,
2013-01-26 20:22:00,24.0,4.0,-100.00,NNW,329,15.0,21.0,43,-99.99,,,-99.99,,2013-01-27 01:22:00,
2013-01-26 20:32:00,24.0,4.0,-100.00,NNW,329,15.0,21.0,43,-99.99,,,-99.99,,2013-01-27 01:32:00,
2013-01-26 20:42:00,24.0,4.0,-100.00,NNW,329,15.0,21.0,43,-99.99,,,-99.99,,2013-01-27 01:42:00,
2013-01-26 20:52:00,24.0,4.0,-100.00,NNW,329,15.0,21.0,43,-99.99,,,-99.99,,2013-01-27 01:52:00,
2013-01-26 21:00:00,23.0,4.0,-100.00,NNW,329,11.0,22.0,44,-99.99,,,-99.99,,2013-01-27 02:00:00,
2013-01-26 21:22:00,23.0,4.0,-100.00,NNW,329,11.0,22.0,44,-99.99,,,-99.99,,2013-01-27 02:22:00,
2013-01-26 21:32:00,23.0,4.0,-100.00,NNW,329,11.0,22.0,44,-99.99,,,-99.99,,2013-01-27 02:32:00,
2013-01-26 21:42:00,23.0,4.0,-100.00,NNW,329,11.0,22.0,44,-99.99,,,-99.99,,2013-01-27 02:42:00,
2013-01-26 21:52:00,23.0,4.0,-100.00,NNW,329,11.0,22.0,44,-99.99,,,-99.99,,2013-01-27 02:52:00,
2013-01-26 22:00:00,22.0,4.0,-100.00,NW,314,11.0,20.0,48,-99.99,,,-99.99,,2013-01-27 03:00:00,
2013-01-26 22:21:00,22.0,4.0,-100.00,NW,314,11.0,20.0,48,-99.99,,,-99.99,,2013-01-27 03:21:00,
2013-01-26 22:32:00,22.0,4.0,-100.00,NW,314,11.0,20.0,48,-99.99,,,-99.99,,2013-01-27 03:32:00,
2013-01-26 22:42:00,22.0,4.0,-100.00,NW,314,11.0,20.0,48,-99.99,,,-99.99,,2013-01-27 03:42:00,
2013-01-26 22:52:00,22.0,4.0,-100.00,NW,314,11.0,20.0,48,-99.99,,,-99.99,,2013-01-27 03:52:00,
2013-01-26 23:00:00,22.0,5.0,-100.00,NNW,338,10.0,19.0,50,-99.99,,,-99.99,,2013-01-27 04:00:00,
2013-01-26 23:22:00,22.0,5.0,-100.00,NNW,338,10.0,19.0,50,-99.99,,,-99.99,,2013-01-27 04:22:00,
2013-01-26 23:32:00,22.0,5.0,-100.00,NNW,338,10.0,19.0,50,-99.99,,,-99.99,,2013-01-27 04:32:00,
2013-01-26 23:42:00,22.0,5.0,-100.00,NNW,338,10.0,19.0,50,-99.99,,,-99.99,,2013-01-27 04:42:00,
2013-01-26 23:52:00,22.0,5.0,-100.00,NNW,338,10.0,19.0,50,-99.99,,,-99.99,,2013-01-27 04:52:00,